カタログに戻る

FENGYUN 1C DEB

運用中PO
NORAD 30246·DEBRIS·🇨🇳 China

打ち上げ May 10, 1999 から Taiyuan Satellite Launch Center

Loading…

次のパス (今後24時間)

TLE

最新Source: Space-Track

元期: Sep 14, 2026, 06:05 UTC

1 30246U 99025XF  26257.25380362  .00000100  00000-0  17071-3 0  9991
2 30246  98.7064   6.2443 0370884 127.6994 265.9956 13.37161374958222

AllMySatでFENGYUN 1C DEBをリアルタイム追跡

Download on the App Store